Regional Weather Roundup
Issued by NWS

Home | Current Version | Previous Version | Graphics & Text | Print | Product List | Glossary On
Versions: 1 2 3 4 5 6 7 8 9 10 11 12 13 14 15 16 17 18 19 20 21 22 23 24 25 26 27 28 29 30 31 32 33 34 35 36 37 38 39 40 41 42 43 44 45 46 47 48 49 50
000
ASUS43 KDTX 020510
RWRMI
MICHIGAN HOURLY REGIONAL WEATHER ROUNDUP
NATIONAL WEATHER SERVICE DETROIT/PONTIAC MI
100 AM EDT THU OCT 02 2014

NOTE: "FAIR" INDICATES FEW OR NO CLOUDS BELOW 12,000 FEET WITH NO
SIGNIFICANT WEATHER AND/OR OBSTRUCTION TO VISIBILITY.

MIZ047>049-052>055-059>063-066>070-074>076-081>083-020600-
SOUTHEAST LOWER MICHIGAN

CITY           SKY/WX    TMP DP  RH WIND       PRES   REMARKS
ADRIAN         CLEAR     54  53  97 SE3       30.04F FOG
ALMA           PTCLDY    50  49  97 CALM      30.03S
ANN ARBOR      PTCLDY    47  44  90 CALM      30.03F FOG
BAD AXE        CLOUDY    54  54 100 SE3       30.07R FOG
CARO           PTCLDY    55  55 100 SE5       30.04F FOG
DETROIT CITY   CLEAR     59  57  93 CALM      30.07S FOG
DETROIT        CLOUDY    57  56  96 E3        30.05S FOG
FLINT          MOCLDY    55  51  86 S3        30.04S FOG
GROSSE ILE     MOCLDY    59  57  94 CALM      30.04S FOG
HILLSDALE      CLEAR     56  56 100 SE6       30.03S FOG
HOWELL         CLOUDY    51  50  97 E3        30.03F FOG

CITY           SKY/WX    TMP DP  RH WIND       PRES   REMARKS
JACKSON        CLEAR     52  50  93 SE5       30.02F
LAMBERTVILLE   FOG       50  48  93 CALM      30.04F VSB 1
LANSING        MOCLDY    55  50  83 SE7       30.02F
LAPEER         FAIR      55  53  96 CALM      30.06S FOG
MASON          PTCLDY    52  50  94 SE3       30.02F
MONROE         PTCLDY    52  50  93 CALM      30.03S FOG
MT. CLEMENS    CLOUDY    60  60 100 E2        30.04R
PONTIAC        CLOUDY    60  57  89 SE7       30.04F FOG
PORT HOPE        N/A     58  56  93 S5        30.05
PORT HURON     FOG       54  54 100 CALM      30.08R VSB 1/2
TRI CITIES     MOCLDY    53  50  89 SE8       30.04F
TROY             N/A     58  55  92 CALM      30.07S FOG
SAGINAW HB     MOCLDY    52  52 100 SE3       30.03F FOG
$$
MIZ043>046-050>051-056>058-064>065-071>073-077>080-020600-
SOUTHWEST LOWER MICHIGAN

CITY           SKY/WX    TMP DP  RH WIND       PRES   REMARKS
BATTLE CREEK   PTCLDY    56  48  74 SE6       30.01S
BENTON HARBOR  MOCLDY    60  50  69 SE12      29.94F
BIG RAPIDS     PTCLDY    48  48 100 CALM      29.99F FOG
COLDWATER      CLEAR     56  53  90 SE6       30.01S
FREMONT        FAIR      54  50  86 SE7       29.97F
GRAND RAPIDS   CLEAR     53  50  89 E6        29.99F
IONIA          FAIR      52  49  90 SE6       30.00F
LUDINGTON      CLOUDY    55  51  89 SE5       29.95S
MARSHALL       PTCLDY    52  50  92 SE5       30.01S
MOUNT PLEASANT PTCLDY    47  46  98 CALM      30.02R FOG
MUSKEGON       PTCLDY    56  50  80 SE9       29.96F
SOUTH HAVEN    MOCLDY    58  52  78 SE8       29.96F
$$
MIZ016>042-020600-
NORTHERN LOWER MICHIGAN

CITY           SKY/WX    TMP DP  RH WIND       PRES   REMARKS
ALPENA         PTCLDY    53  53 100 S6        30.03S FOG
BEAVER ISLAND  CLOUDY    55  54  99 E3        29.97F
CADILLAC       CLEAR     54  50  86 SE5       29.98F
CHARLEVOIX     MOCLDY    53  53  99 SE3       30.01F
FRANKFORT      CLOUDY    59  50  71 E3        29.94F
GAYLORD        CLOUDY    54  53  97 S9        30.00F FOG
GRAYLING       FOG       54  54 100 S5          N/A  VSB 1/2
HARBOR SPRINGS PTCLDY    54  52  95 E7        29.99F FOG
HOUGHTON LAKE  MOCLDY    53  53 100 CALM      30.02S FOG
OSCODA         PTCLDY    54  54 100 CALM      30.03F FOG
PELLSTON       MOCLDY    55  54  96 SE7       30.00F FOG
ROGERS CITY    CLOUDY    56  56 100 S7        30.04R FOG
TRAVERSE CITY  MOCLDY    52  49  89 CALM      29.95F
$$
MIZ007>008-015-020600-
EASTERN UPPER MICHIGAN

CITY           SKY/WX    TMP DP  RH WIND       PRES   REMARKS
MACKINAC ISLAN CLOUDY    57  56  99 SE6       30.00S FOG
NEWBERRY       CLOUDY    56  54  93 S10G20    29.95F
S. S. MARIE    CLOUDY    57  55  93 SE12G20   30.00S FOG
MUNISING         N/A     57  51  80 S7G17     29.90F
$$
MIZ004>006-011>014-085-020600-
CENTRAL UPPER MICHIGAN

CITY           SKY/WX    TMP DP  RH WIND       PRES   REMARKS
MANISTIQUE     CLOUDY    56  54  94 S7        29.95F
SAWYER-GWINN   CLOUDY    52  50  92 S10       29.91S
$$
MIZ001>003-009>011-084-020600-
WESTERN UPPER MICHIGAN

CITY           SKY/WX    TMP DP  RH WIND       PRES   REMARKS
IRON MOUNTAIN  CLOUDY    53  51  93 SE6       29.90S
HOUGHTON       CLOUDY    54  50  86 S7        29.86R
COPPER HARBOR    N/A     55  51  86 SW7       29.85S
$$

ABBREVIATIONS USED IN REMARKS
   TC - TEMPERATURE IN CELSIUS
  WCI - WIND CHILL INDEX
   HX - HEAT INDEX
  VSB - VISIBILITY




USA.gov is the U.S. government's official web portal to all federal, state and local government web resources and services.